Wind_Speed
52 52 53 54 53 52 50 49 49 49 50 50 49 48 47 48 50 51 51 50 49 48 48 49 49 49 48 48 48 48 48 48 49 49 50 50 51 51 52 52 53 54 54 55 55 54 55 55 54 54 54 54 55 55 56 56 57 57 56 55 56 57 57 56 57 58 60 62 65 67 67 67 68 70 73 75 76 76 76 77 77 76 75 76 78
53 54 55 54 54 52 51 51 50 50 49 47 47 48 48 48 49 50 51 52 51 49 48 48 49 49 49 49 49 49 49 49 49 50 51 51 52 52 53 54 54 54 55 55 55 55 54 54 54 54 54 54 55 55 56 57 57 57 57 57 58 58 58 58 58 60 62 64 67 68 68 69 72 74 75 75 75 76 76 76 75 74 74 77 79
54 54 54 55 54 54 53 53 51 49 46 44 44 46 48 49 50 51 51 51 51 50 49 48 49 50 50 50 51 50 50 50 51 51 52 52 53 53 54 55 55 55 55 56 56 55 54 54 54 54 54 54 55 55 56 57 57 58 59 59 59 59 59 60 60 62 64 66 67 68 70 72 74 74 74 74 75 75 73 73 73 74 76 78 78
55 55 55 56 56 56 56 54 49 45 42 41 41 44 47 50 51 52 52 51 50 50 49 49 49 50 51 51 51 51 52 52 52 52 53 53 54 54 55 55 56 56 56 56 56 55 55 54 54 55 55 55 56 56 57 58 58 59 59 59 59 60 60 61 63 64 65 66 67 68 70 71 73 75 75 74 73 72 71 71 72 74 76 78 78
55 55 56 58 59 59 57 52 44 40 39 39 40 43 47 50 51 52 52 51 49 49 49 49 49 50 51 52 52 53 53 53 53 53 53 53 54 54 55 55 55 55 54 55 55 55 55 55 55 55 56 57 57 57 58 59 60 60 60 60 60 60 61 63 65 66 67 67 68 68 70 72 74 74 72 70 70 70 70 71 73 75 76 77 79
57 58 60 61 60 58 53 45 38 38 39 40 41 44 46 48 49 50 50 49 48 48 49 49 50 50 51 52 53 53 53 53 53 53 53 53 53 54 54 54 54 54 53 54 55 55 56 56 57 57 58 57 58 58 59 60 61 61 61 61 61 61 63 64 65 66 66 67 69 71 73 73 72 70 69 68 68 69 70 71 74 76 77 78 79
61 61 60 59 57 52 45 39 37 39 41 42 43 45 46 47 47 49 49 48 48 49 49 49 50 50 51 52 53 53 53 53 53 53 53 53 53 53 53 53 53 54 54 54 55 56 56 57 58 59 59 59 59 60 60 61 61 61 61 62 62 62 63 64 65 67 68 69 71 71 70 68 67 67 67 67 68 70 72 74 75 77 78 79 80
60 57 54 52 50 46 41 37 38 41 43 44 44 45 46 47 48 49 50 50 50 51 51 51 50 51 51 52 53 53 53 54 53 53 53 53 53 53 53 53 54 54 55 55 56 56 58 59 59 59 59 59 60 60 61 61 61 62 62 62 63 64 65 66 67 67 68 68 67 65 64 64 65 66 67 68 70 73 76 77 76 76 77 79 82
54 51 48 47 47 44 41 40 41 43 44 45 44 44 45 46 47 48 49 50 51 52 52 52 52 52 53 53 53 54 54 54 53 53 53 53 53 53 53 54 55 56 56 56 57 58 59 59 59 59 59 59 60 61 61 62 62 63 64 64 65 66 66 67 67 67 65 63 61 61 63 64 66 67 69 71 74 75 77 77 76 76 78 80 82
49 47 46 47 47 46 43 42 44 45 46 45 44 44 44 44 45 45 46 47 49 51 52 53 53 54 55 55 56 56 56 55 54 54 53 53 53 53 54 55 56 57 58 58 58 59 59 60 59 59 59 60 60 61 62 63 64 64 65 65 66 67 68 69 68 66 64 62 62 64 65 66 68 70 72 73 74 75 77 77 78 79 80 81 80
48 48 48 48 49 48 47 46 46 47 46 46 45 45 45 45 45 45 44 44 46 48 51 53 54 55 56 57 57 58 58 57 56 55 54 54 54 55 56 57 58 59 60 60 60 59 59 59 59 59 60 61 62 63 63 64 64 65 65 66 68 68 68 67 65 64 63 64 65 66 67 68 70 71 72 73 74 75 77 79 80 81 81 80 79
51 50 51 51 50 50 50 49 49 48 47 47 47 47 48 48 47 47 46 45 45 46 49 51 53 54 56 57 57 58 58 57 56 55 55 56 56 56 57 58 59 60 61 61 61 60 60 60 60 61 62 62 63 64 65 65 65 66 66 67 68 67 65 64 64 65 65 66 66 67 68 69 70 71 72 73 75 77 79 80 80 80 80 80 80
53 53 53 52 52 52 53 52 51 50 49 49 49 50 51 51 50 50 49 47 46 46 48 49 50 51 53 54 55 56 56 56 56 56 56 56 57 57 58 59 60 61 61 61 61 62 62 62 62 63 63 64 64 65 65 66 66 66 67 68 69 68 66 65 65 65 65 66 67 68 68 68 69 70 73 75 77 78 79 78 78 79 79 80 81
53 54 54 54 54 54 54 54 53 52 52 52 52 53 54 53 52 51 51 50 49 49 49 49 49 50 51 52 53 54 54 55 55 55 56 56 57 58 59 59 60 60 61 61 61 62 63 63 64 64 64 65 65 66 66 66 67 67 68 68 68 66 64 64 64 65 66 67 66 66 66 68 70 73 75 77 77 77 77 77 78 79 79 81 82
53 54 54 55 55 56 55 55 54 54 54 55 56 56 55 54 53 53 53 53 52 52 51 50 50 50 51 52 53 53 54 54 55 55 56 56 57 58 58 59 60 60 60 60 61 61 62 63 64 64 65 65 66 66 66 67 68 68 68 66 65 64 65 66 67 66 65 64 64 66 68 70 73 74 75 76 76 76 76 77 78 79 80 81 82
55 55 56 56 57 57 57 56 56 56 57 58 59 59 58 58 57 57 57 56 55 54 53 52 51 51 52 53 53 54 55 55 56 56 56 57 57 58 59 59 60 60 60 61 61 62 63 64 64 64 65 65 65 66 67 67 68 67 66 65 65 66 67 66 65 63 63 65 67 68 70 71 72 73 74 74 75 75 76 77 79 80 81 81 82
58 58 58 58 59 59 59 59 59 59 61 62 62 62 61 61 60 60 59 58 57 55 54 54 53 53 53 53 54 55 56 56 57 57 57 57 58 58 59 60 61 62 63 64 64 64 65 65 65 65 64 64 65 66 67 67 66 64 64 64 65 64 64 63 63 64 65 66 67 68 69 70 71 71 72 73 74 75 76 78 79 80 81 81 81
62 61 61 61 61 61 61 62 62 63 64 64 64 64 63 63 62 62 62 61 59 58 57 56 55 55 55 55 55 56 56 57 57 57 58 59 59 60 61 62 63 64 65 66 66 66 65 65 65 64 64 64 66 66 64 62 62 62 62 62 61 61 61 62 63 64 65 66 66 67 68 69 69 70 71 72 73 75 76 77 78 79 79 80 82
65 65 64 64 64 65 65 65 66 66 66 66 66 66 65 65 65 65 64 63 62 61 60 59 59 58 58 58 58 59 59 59 59 60 60 61 62 63 64 65 66 66 66 66 65 65 64 64 63 63 64 64 63 60 59 59 60 60 60 60 60 60 61 62 63 63 64 64 65 66 67 68 68 69 70 71 73 74 74 75 76 78 79 81 82
68 68 68 68 68 68 68 68 69 69 68 69 69 68 68 68 67 67 66 65 64 64 63 63 62 62 62 62 62 62 62 62 62 63 64 64 65 66 67 67 67 66 66 65 64 63 62 62 62 62 62 60 57 56 57 58 59 58 59 59 60 60 61 61 62 62 63 64 65 66 67 67 67 68 69 71 71 72 74 75 77 79 81 82 84
71 71 71 71 72 72 71 71 71 71 71 71 71 71 71 70 70 69 68 67 67 67 67 66 66 66 66 67 67 67 66 65 65 65 66 67 67 67 67 67 67 66 65 63 62 61 61 61 61 59 57 56 56 56 57 57 57 57 58 59 59 59 60 61 61 63 64 65 65 65 65 66 67 68 69 70 71 73 74 76 78 80 82 84 85
74 74 75 75 75 75 75 74 74 74 74 74 74 74 74 73 72 72 71 71 71 71 71 70 70 69 69 70 69 69 68 68 67 68 68 68 69 69 68 67 66 63 61 60 60 60 60 59 57 56 55 56 56 56 55 56 56 57 57 57 58 59 60 61 62 63 64 63 63 63 64 65 66 67 68 70 72 74 75 77 78 80 82 84 86
78 79 79 79 79 80 80 79 79 79 78 78 78 78 78 78 77 76 75 74 73 73 73 73 73 72 71 70 69 69 69 69 69 70 70 70 69 69 67 65 62 60 58 58 58 57 56 54 54 54 54 54 54 54 55 55 55 55 56 57 58 60 61 61 61 61 61 61 61 62 63 65 66 67 69 70 72 73 75 76 78 80 82 84 85
82 82 82 83 83 83 83 83 83 83 83 83 83 83 82 82 82 81 80 78 77 76 75 75 74 72 71 69 69 69 69 70 70 71 70 68 67 65 63 61 59 57 56 55 55 54 53 53 53 53 53 53 54 54 55 54 55 56 57 58 59 59 59 59 58 59 59 60 62 63 64 65 66 67 69 70 71 73 75 77 78 80 82 83 85
85 85 85 85 85 86 86 86 87 87 87 87 86 86 85 85 85 84 83 82 80 78 77 76 75 73 71 70 69 69 70 70 70 69 66 64 62 61 59 56 55 54 53 53 53 53 53 53 53 53 54 54 54 54 54 55 56 57 57 58 58 57 57 58 58 59 60 61 62 63 64 65 66 67 69 70 72 73 75 77 78 80 81 83 85
87 87 87 87 88 88 88 88 89 88 88 87 86 85 84 83 83 82 81 79 78 76 76 74 73 71 70 69 68 67 67 66 64 62 60 58 57 55 52 51 51 50 51 51 52 53 53 53 54 54 54 54 54 55 55 56 57 57 57 57 57 57 58 58 59 60 60 61 62 63 64 65 67 68 69 71 72 74 75 77 78 79 81 82 84
84 85 85 85 85 85 85 85 84 83 82 82 81 80 79 78 76 75 73 72 71 70 70 69 68 66 65 63 62 61 60 59 58 56 54 51 49 47 47 47 48 49 50 51 52 53 54 54 54 55 55 55 55 56 56 57 57 56 57 57 57 58 58 58 58 59 60 61 62 63 64 66 67 69 70 72 73 75 76 77 78 79 81 82 83
77 77 77 77 76 76 76 75 75 74 75 75 74 74 72 70 67 65 64 63 62 61 60 59 58 57 56 56 56 56 55 54 52 50 47 45 44 45 46 47 48 50 52 53 54 54 55 55 56 56 56 56 56 56 56 56 56 56 56 57 57 57 57 57 58 59 60 61 63 64 65 67 68 70 71 73 74 75 76 78 79 80 81 82 83
69 68 68 67 67 66 66 66 66 67 67 67 66 65 63 61 58 56 54 54 54 53 52 50 48 47 47 48 48 48 47 46 44 44 44 45 47 48 48 49 50 52 53 53 54 55 55 55 56 56 55 55 55 54 54 55 55 56 56 56 55 55 56 57 58 59 60 62 63 65 66 68 69 71 72 74 75 76 77 78 79 80 81 82 83
61 61 61 60 61 61 61 61 61 61 59 58 58 57 55 54 53 49 47 47 49 48 46 44 41 40 41 42 43 43 43 44 44 46 48 49 50 50 51 51 51 52 53 53 54 54 55 55 54 54 54 53 53 54 54 55 55 55 54 53 54 55 56 57 58 60 61 62 64 65 67 69 70 72 73 75 76 77 78 79 80 81 82 83 84
60 59 59 60 60 58 58 59 58 56 53 51 50 50 51 51 49 45 43 45 46 44 42 43 43 43 42 43 44 45 46 47 48 49 51 52 51 51 51 51 51 52 53 53 54 54 53 53 52 52 52 52 53 53 54 53 52 52 52 53 54 55 57 58 60 61 62 63 65 66 68 70 71 72 74 75 77 78 79 80 81 82 83 84 85
62 61 62 62 60 57 56 56 55 53 50 48 48 50 52 53 52 51 50 48 45 44 46 49 49 47 45 45 46 48 49 49 50 51 52 52 52 51 51 51 52 53 53 53 53 52 51 50 50 51 51 52 52 51 51 51 51 51 52 54 56 57 59 60 61 62 63 65 66 67 69 70 72 73 75 76 77 79 80 81 82 83 84 85 85
68 66 66 65 63 61 57 52 51 51 51 51 53 56 57 58 58 57 54 51 50 50 51 51 50 48 48 48 48 50 51 51 52 53 53 52 51 51 52 52 52 52 52 51 50 49 49 49 49 50 50 50 49 49 50 50 52 53 55 56 58 59 60 61 62 64 65 66 67 69 70 71 73 74 76 77 78 80 81 82 83 84 84 84 84
71 69 67 64 61 58 55 54 57 61 61 61 62 62 61 60 58 53 50 51 52 52 50 49 48 48 49 50 50 52 52 53 54 56 55 52 51 52 52 51 51 50 50 49 49 49 49 49 48 48 48 48 49 49 50 52 54 55 57 58 59 60 61 62 63 65 66 67 69 70 71 73 74 76 77 78 80 81 82 83 84 84 84 84 84
70 67 66 64 60 59 61 64 69 71 69 67 65 63 62 60 56 51 50 52 53 53 52 51 51 50 50 51 52 52 53 54 56 56 55 52 52 51 50 50 49 49 48 49 49 49 48 48 47 47 47 48 49 50 52 54 55 57 58 59 60 61 62 63 65 66 68 69 71 72 73 74 76 77 78 80 81 82 83 83 84 84 84 84 85
70 68 68 67 67 69 70 70 70 69 66 64 63 62 63 60 54 49 50 51 53 54 55 54 53 52 51 52 52 53 53 54 56 56 55 53 51 50 49 49 49 48 49 49 49 48 47 46 47 47 48 49 50 52 54 55 57 58 59 60 61 62 63 64 66 68 70 71 73 74 75 76 77 79 80 81 82 83 83 84 84 84 85 85 85
72 71 71 72 72 71 69 67 67 65 61 60 62 64 64 61 56 52 51 52 53 54 53 53 53 53 53 53 53 53 53 54 56 57 55 52 51 49 49 48 48 48 48 48 47 46 46 47 47 48 49 51 52 54 56 57 58 59 60 61 62 63 64 66 68 70 71 73 74 75 76 77 79 80 81 82 83 83 84 84 84 85 86 86 86
75 74 74 73 71 69 66 65 66 65 62 62 65 64 61 57 55 53 51 52 52 52 52 52 52 53 53 54 54 53 53 55 57 56 53 51 49 48 48 47 47 47 47 46 46 46 47 48 49 50 51 53 55 56 58 59 59 60 61 62 63 64 66 68 69 71 73 74 75 76 77 79 80 81 82 83 83 84 84 85 86 86 87 88 88
75 74 74 72 70 69 67 67 69 67 63 60 61 59 55 52 51 50 50 51 51 53 53 53 52 52 53 53 53 53 53 55 54 52 50 49 48 48 47 47 47 46 46 46 46 47 48 49 51 52 54 55 57 58 59 60 60 61 62 63 65 66 68 70 71 73 74 75 76 77 79 80 82 82 83 83 84 85 86 87 88 88 89 89 89
69 70 70 70 68 66 65 67 67 64 58 56 58 57 53 52 51 51 52 53 53 54 54 53 52 53 54 54 54 53 53 52 51 49 49 48 48 48 47 47 46 46 46 47 48 49 50 51 53 54 56 57 59 60 60 61 61 62 63 65 67 68 70 71 72 73 75 76 77 79 81 82 82 83 83 84 85 86 87 89 90 91 91 91 90
65 66 67 66 65 65 64 64 62 58 56 59 62 61 59 58 58 57 57 57 56 54 53 53 55 56 57 56 54 52 51 50 49 49 49 49 48 48 47 46 46 46 47 48 49 51 52 53 55 56 58 59 60 61 61 62 63 64 66 67 68 70 71 72 73 74 75 77 79 81 82 83 83 84 84 85 86 88 89 91 92 92 93 92 92
62 65 66 66 66 65 62 60 59 58 58 62 65 64 63 62 60 59 58 58 55 53 54 56 57 57 56 55 53 51 50 49 48 48 48 48 48 48 47 47 47 47 48 50 51 52 54 55 56 58 59 60 61 62 63 64 65 66 67 69 70 71 72 73 74 75 77 79 80 82 83 83 84 85 86 87 88 89 91 92 93 94 94 94 92
62 64 65 66 65 63 61 61 62 62 62 63 63 61 58 56 54 53 54 53 52 52 54 56 57 56 56 55 54 53 52 50 49 48 48 48 48 48 47 47 48 49 50 51 52 53 55 56 58 59 61 62 63 64 65 66 67 68 69 70 71 72 73 74 76 77 79 80 82 83 84 85 86 87 88 89 90 90 91 93 95 96 95 93 88
63 63 62 61 60 60 61 61 60 58 57 57 58 57 55 54 53 52 52 51 51 53 56 58 59 59 58 57 56 55 53 51 49 49 48 48 48 48 48 48 49 50 51 52 53 54 56 58 59 61 62 64 65 66 66 67 68 69 70 71 73 74 75 77 78 79 80 81 83 84 85 87 88 89 89 90 90 91 93 95 97 97 94 89 81
61 62 62 62 62 62 60 58 57 56 55 55 56 57 56 55 56 56 56 55 55 57 59 59 59 58 57 56 55 54 52 50 49 49 48 48 48 48 49 50 51 52 53 54 55 56 58 60 61 63 64 65 66 67 67 68 69 71 72 73 74 76 77 79 80 81 82 83 84 86 87 88 89 90 90 91 92 93 95 97 97 94 89 82 73
59 60 60 61 62 61 58 58 61 62 61 59 58 58 57 57 59 60 60 58 58 59 60 59 58 57 56 55 54 53 51 50 49 49 49 49 49 50 50 51 52 53 54 55 57 58 60 61 63 64 65 66 66 67 68 69 71 72 74 75 76 78 79 81 82 83 84 85 86 88 88 89 90 90 91 92 94 96 97 96 94 89 82 74 65
59 59 60 61 62 63 63 63 63 63 61 59 57 55 55 56 58 59 58 58 58 58 57 57 57 56 55 54 53 51 50 50 50 50 50 50 50 50 51 52 53 54 56 57 58 60 62 63 64 65 65 66 67 68 70 72 73 74 76 77 78 80 81 82 83 85 86 87 88 89 89 90 90 91 93 95 96 96 94 92 88 82 75 66 58
53 54 54 56 58 61 63 63 61 59 59 57 54 52 52 55 56 56 56 56 55 55 56 56 56 55 54 53 51 50 50 50 50 50 50 50 51 51 52 53 54 56 57 59 60 62 63 63 64 65 66 68 69 71 73 74 75 77 78 79 81 82 83 84 86 87 88 89 90 90 90 91 92 94 95 95 94 92 89 85 81 75 68 59 52
49 48 49 50 51 53 54 55 55 56 57 56 54 54 54 55 55 54 54 54 54 54 55 55 54 53 52 51 50 50 49 49 49 50 50 50 51 52 53 54 56 57 59 60 61 62 63 64 65 67 69 70 72 73 75 76 77 79 80 82 83 84 85 86 88 89 90 90 90 90 91 93 94 95 94 91 88 85 82 80 75 69 61 53 47
45 47 50 53 53 52 52 53 54 56 57 56 55 54 53 52 52 51 52 52 52 53 52 52 51 50 50 49 49 49 49 49 49 50 50 51 52 53 54 56 57 58 60 61 62 63 65 66 68 69 71 72 74 76 77 79 80 82 83 84 85 86 87 89 90 90 90 91 91 92 93 94 93 90 87 83 81 80 78 74 69 62 55 48 44
46 48 51 53 54 53 52 52 53 54 55 54 52 51 49 49 50 50 50 51 51 51 50 49 48 48 47 48 48 48 49 49 50 51 52 52 53 54 56 57 58 59 61 62 64 65 66 68 69 71 73 75 76 78 80 81 83 84 85 86 87 89 90 91 91 91 91 92 93 93 92 89 86 82 80 78 77 75 73 69 63 57 50 44 41
Wind_Direction
292 293 293 294 295 296 298 301 302 301 298 295 291 285 280 277 277 278 279 277 276 276 277 277 278 278 278 278 280 280 280 280 280 281 282 284 285 285 286 286 287 288 289 290 290 290 290 290 290 290 289 289 289 289 289 290 291 293 294 294 294 294 294 295 294 294 294 294 295 295 295 295 295 295 296 296 298 299 300 300 301 301 301 300 299
292 292 293 293 294 295 298 299 300 298 295 292 288 284 279 277 277 277 277 277 277 277 277 277 277 278 278 279 279 280 279 279 280 281 283 284 285 285 286 287 288 289 290 290 290 290 290 290 290 289 289 289 289 289 289 290 291 293 293 293 293 294 294 294 294 294 294 294 294 294 295 295 295 295 296 297 298 299 300 300 300 300 299 298 296
291 292 292 292 293 295 297 298 298 295 291 288 286 280 276 276 276 276 276 276 276 276 277 277 278 279 279 280 280 280 280 280 281 282 283 284 284 286 287 288 289 289 290 290 290 290 290 290 290 289 289 288 288 289 290 291 292 292 292 292 293 293 294 294 294 294 293 292 292 293 293 294 294 295 297 298 298 298 299 299 298 298 297 295 295
290 291 291 292 293 295 296 297 296 291 287 286 283 277 274 274 275 276 276 276 276 276 276 277 278 279 280 281 281 281 281 281 281 282 283 284 285 286 287 288 288 289 289 289 290 290 290 290 290 290 289 289 289 290 291 292 292 292 292 292 292 292 292 292 292 292 292 291 290 290 291 293 295 297 297 297 297 297 297 296 296 295 294 294 295
289 290 291 292 294 294 295 296 292 286 285 286 283 278 274 274 276 277 278 279 278 277 277 277 277 278 279 279 280 280 281 281 282 283 283 284 285 285 286 287 287 288 288 289 289 290 290 290 290 290 290 290 291 291 291 291 291 291 290 290 289 289 289 289 290 291 291 290 290 291 293 295 296 296 296 296 295 295 295 294 293 293 293 294 296
290 291 292 293 294 293 294 293 286 281 283 284 282 279 278 278 279 280 281 282 282 281 280 278 278 278 278 278 279 280 281 282 282 283 284 284 285 285 286 286 287 287 288 289 289 290 291 291 291 290 290 291 291 291 291 290 290 290 289 289 289 288 288 289 291 292 292 292 293 294 294 294 294 295 294 293 293 293 292 291 291 292 294 295 296
291 292 293 293 292 292 293 288 281 280 282 282 281 282 282 283 284 283 284 285 284 283 282 280 279 279 279 279 280 280 281 282 283 284 284 285 285 285 286 286 287 288 288 289 290 290 291 291 291 291 291 291 291 291 290 290 290 290 290 290 290 290 291 292 293 293 294 294 294 293 293 293 293 293 293 292 292 291 290 290 292 293 295 296 297
293 293 292 291 291 291 291 286 281 280 281 282 284 285 285 286 286 286 286 286 284 283 282 282 281 280 280 280 280 280 280 281 282 283 284 285 286 286 287 287 288 289 290 290 290 290 290 290 290 290 290 291 291 290 290 291 291 291 291 291 292 293 294 293 293 294 293 292 292 292 292 293 292 292 292 291 290 290 290 291 293 294 295 296 296
292 292 291 290 289 289 287 285 283 282 282 284 286 287 288 288 288 287 286 284 283 283 282 282 282 282 281 281 281 281 281 281 282 283 284 285 286 286 287 287 289 290 290 290 290 290 290 289 289 289 289 290 290 290 291 291 291 292 292 293 294 294 294 293 293 293 292 291 291 291 291 291 291 291 290 290 290 290 292 293 295 295 296 296 297
291 291 291 289 288 286 285 284 283 284 285 287 288 290 292 293 292 290 287 283 281 281 281 281 281 281 282 282 283 283 283 283 283 284 285 286 287 287 288 289 290 291 291 291 290 289 289 288 288 289 289 290 290 291 291 292 292 292 293 294 294 293 292 291 291 290 290 290 290 290 290 289 289 289 289 290 291 293 294 295 296 296 296 297 297
290 290 289 288 287 286 286 285 284 285 286 288 290 293 295 296 295 293 289 285 281 279 279 279 279 280 281 282 283 283 283 283 284 285 286 287 288 288 289 290 291 291 292 292 291 290 289 289 289 289 289 290 291 291 292 292 292 293 293 293 293 292 290 288 288 288 288 290 290 290 289 288 288 289 290 292 294 295 295 296 296 297 297 297 297
287 287 287 286 286 286 286 286 286 286 286 288 291 294 297 297 296 294 291 288 283 280 278 278 278 278 278 279 280 281 282 282 283 285 285 286 287 287 288 289 290 291 291 292 291 291 290 289 289 290 291 291 291 291 291 292 292 292 292 292 292 290 288 286 286 287 289 290 289 288 288 288 290 291 293 294 295 296 296 296 297 297 298 298 299
286 286 286 285 285 285 285 285 285 286 287 289 292 295 297 297 295 293 292 290 287 283 281 280 279 278 277 277 277 278 279 280 281 282 283 284 285 286 287 288 289 289 290 290 291 291 290 290 290 290 291 291 291 290 290 290 290 291 290 290 290 289 286 285 286 288 289 289 289 289 290 291 293 294 295 296 296 296 296 296 297 297 298 299 301
285 285 285 285 285 284 284 284 285 286 288 290 293 295 296 296 294 293 292 291 290 288 286 284 283 281 279 278 277 277 277 278 278 279 281 282 283 284 285 286 287 288 289 290 290 290 290 290 290 291 291 290 290 290 290 290 290 290 290 289 288 286 286 286 288 290 290 291 291 292 293 295 296 296 296 296 296 296 296 296 297 298 300 301 302
284 283 282 282 283 283 283 284 284 286 288 291 293 295 295 295 294 293 292 292 291 290 289 287 285 283 281 280 279 279 278 279 279 280 280 281 282 283 284 285 287 288 289 290 290 290 290 290 290 290 290 290 290 290 290 290 290 289 288 286 285 286 287 290 291 293 293 294 295 295 296 297 297 297 296 296 295 296 296 298 299 300 301 302 305
283 281 281 281 281 281 282 283 284 286 288 290 292 293 293 294 294 293 293 292 291 290 289 288 286 284 282 281 281 281 281 281 281 282 282 283 284 285 285 286 287 288 290 291 291 291 290 289 289 289 288 289 289 289 289 289 288 287 286 285 286 287 290 292 294 295 295 296 296 297 297 297 296 296 295 295 296 297 298 300 301 302 304 306 308
282 281 281 280 280 280 281 282 283 285 287 289 290 292 293 293 293 293 292 291 290 289 287 286 285 284 283 283 283 283 283 283 284 284 285 285 286 286 287 287 288 289 290 292 292 291 290 289 288 287 287 287 288 288 288 287 287 286 286 286 288 290 292 294 295 296 297 297 297 297 296 296 295 295 295 297 298 300 301 302 304 306 308 310 312
282 282 281 280 279 279 279 281 282 285 287 288 290 291 291 292 292 291 291 290 288 287 286 285 285 285 285 285 285 285 285 285 285 286 286 286 286 287 288 289 290 290 291 291 291 290 289 288 288 287 287 287 288 288 287 285 285 285 286 288 291 293 294 295 296 297 298 298 297 296 295 295 295 297 299 300 301 303 305 307 309 311 312 313 314
281 281 281 280 279 278 279 280 282 284 286 288 289 289 289 289 289 289 289 288 287 286 285 285 285 285 286 286 286 287 286 287 287 287 286 286 287 287 288 289 290 290 291 290 290 289 288 288 287 287 287 287 286 285 283 282 283 286 289 291 293 295 297 298 299 298 297 296 295 294 295 297 299 300 302 303 304 307 309 311 313 313 314 315 315
281 280 280 279 279 279 279 281 283 284 286 287 287 287 287 287 287 287 287 287 286 285 285 285 286 286 286 287 288 288 288 288 287 287 287 287 287 288 289 289 290 290 290 290 289 288 287 287 287 286 286 285 283 281 282 283 286 289 292 295 297 298 299 299 298 296 294 294 294 296 298 300 301 302 304 306 308 311 312 314 314 315 315 315 315
280 280 280 279 279 279 279 281 282 283 284 285 285 285 285 285 286 286 286 286 285 285 286 286 286 287 287 287 288 288 288 288 287 287 287 287 288 289 290 290 290 290 290 289 288 287 286 286 285 285 284 282 281 282 284 287 290 293 296 298 299 298 297 295 294 293 294 295 297 299 300 301 302 305 307 310 312 313 314 315 315 315 316 316 316
278 279 279 279 279 279 279 280 280 281 282 283 283 283 283 283 284 284 285 285 285 285 285 286 286 287 288 288 288 287 287 286 286 287 287 288 289 290 290 291 291 290 288 286 285 284 284 284 284 283 282 282 283 285 288 291 294 296 297 297 296 294 293 293 293 294 296 298 299 300 301 303 306 309 312 313 314 314 315 315 316 316 316 316 316
277 277 277 278 278 278 278 278 279 280 281 281 282 282 282 282 282 283 283 284 284 285 285 286 287 288 288 288 287 287 286 286 287 288 288 289 289 290 290 290 288 286 284 282 282 282 283 284 284 283 283 284 286 288 291 293 295 295 294 293 292 292 292 294 295 297 298 299 300 302 305 308 311 312 313 314 315 315 316 316 316 317 316 316 316
275 275 275 276 276 276 276 277 277 279 280 281 281 281 281 281 281 282 283 284 284 284 285 286 287 288 288 288 287 286 285 285 286 288 289 289 289 288 286 284 282 281 280 281 282 283 285 285 285 285 285 287 289 291 292 293 292 292 292 292 293 294 295 297 298 299 300 301 304 307 309 311 312 313 314 315 315 316 316 316 317 316 316 316 316
274 274 274 274 275 275 276 277 278 279 280 281 281 281 281 281 282 282 283 284 284 285 285 285 286 286 286 285 284 284 285 286 288 289 289 287 285 282 279 279 279 280 282 284 286 286 286 286 286 286 288 289 290 291 291 291 292 293 294 295 296 297 298 299 299 301 303 306 308 309 311 312 313 314 315 316 316 316 316 316 316 316 316 316 315
274 274 274 275 275 276 277 278 279 280 281 281 282 282 282 282 283 283 284 284 285 285 285 284 284 283 283 283 283 284 286 287 287 285 282 280 278 277 278 280 283 285 287 288 287 287 286 286 287 288 289 290 291 291 292 293 294 294 295 296 297 298 299 300 302 304 307 308 310 311 312 314 315 315 315 316 316 316 316 316 316 315 315 315 314
274 275 275 276 276 277 277 278 279 280 280 281 282 282 283 283 284 285 285 284 284 283 282 282 282 282 282 283 282 282 282 281 279 277 276 277 279 282 285 286 288 288 288 287 287 287 287 288 288 289 290 291 291 292 293 294 295 296 297 297 298 299 301 303 305 307 309 310 311 312 313 314 315 315 315 315 315 315 315 315 315 314 314 314 314
275 275 276 277 277 278 278 279 279 280 281 282 282 283 284 285 285 285 285 284 283 283 283 283 282 280 279 277 276 275 274 274 274 276 279 283 287 289 290 289 288 287 287 287 287 287 288 289 289 290 291 291 292 293 294 295 296 297 298 299 300 302 304 306 307 308 310 311 312 313 313 314 314 315 315 315 315 314 314 314 314 314 313 313 313
275 276 277 278 278 279 280 280 281 281 282 282 283 284 284 285 286 285 285 285 283 281 279 277 276 275 275 274 274 273 274 276 279 283 287 290 292 291 290 288 287 286 286 286 287 287 288 289 290 290 291 292 293 294 295 296 297 298 300 301 303 304 306 307 308 309 309 310 311 312 313 313 314 314 314 314 313 313 313 313 313 313 313 313 313
275 277 278 279 280 281 281 280 280 280 281 282 283 283 284 285 283 279 279 279 277 274 272 272 276 280 282 281 280 280 281 284 286 289 292 293 292 290 288 287 286 285 285 286 287 288 289 289 290 291 292 293 295 296 297 298 299 300 301 303 304 305 306 306 307 308 309 310 310 311 312 312 312 313 313 313 313 313 313 313 312 312 313 313 314
275 276 278 279 280 280 279 278 278 278 279 282 283 284 287 285 277 274 277 278 275 275 277 280 285 288 287 284 282 282 283 285 287 290 292 292 290 288 286 286 286 286 287 288 288 288 289 290 291 292 294 295 296 297 298 299 300 301 302 303 303 304 305 305 306 307 308 309 310 310 311 311 311 312 312 312 312 312 312 312 312 312 313 313 314
275 276 277 277 277 278 278 277 276 276 279 282 283 286 290 285 278 279 284 281 275 276 281 284 287 288 286 282 280 278 279 282 285 290 292 290 288 287 287 287 287 288 287 287 287 288 289 290 292 293 294 295 296 297 298 299 300 301 301 302 303 303 304 305 306 307 307 308 309 309 310 310 311 311 312 312 312 312 312 312 312 313 313 314 314
275 276 276 275 275 275 275 273 274 276 279 281 283 288 289 285 279 281 282 277 273 277 281 283 285 286 284 281 278 277 277 280 285 290 292 289 287 287 287 287 287 286 285 286 287 288 290 291 292 293 295 296 297 298 298 299 299 300 301 301 302 303 303 304 305 306 307 307 308 309 309 310 311 311 312 312 312 312 312 312 312 313 314 314 315
274 274 274 273 272 270 268 271 277 280 281 281 284 288 287 282 277 275 273 272 273 276 279 282 285 285 284 282 280 278 277 279 284 290 292 289 287 286 286 284 284 284 285 286 288 289 290 291 292 294 295 296 296 297 297 298 299 299 300 301 301 302 303 304 305 305 306 307 308 308 309 310 311 311 312 312 312 312 312 312 312 313 314 315 315
272 272 271 270 267 265 269 277 282 283 283 285 288 288 284 278 272 268 267 270 273 275 278 282 284 285 285 283 280 279 278 280 285 290 291 288 285 284 283 282 283 284 286 287 289 289 290 291 292 293 294 294 294 295 296 297 298 298 299 300 301 302 303 304 304 305 306 307 308 308 309 310 311 311 311 311 312 312 312 312 313 313 314 315 315
270 270 270 269 268 271 277 282 283 284 287 290 288 284 279 274 268 265 266 268 271 274 278 282 285 287 287 284 281 279 279 282 286 290 289 285 282 281 281 282 284 285 286 287 288 288 289 290 291 292 292 293 293 294 295 296 297 298 299 300 301 302 302 303 304 305 306 307 307 308 309 310 311 311 311 311 311 311 312 312 313 313 314 315 315
269 269 269 271 273 276 279 280 280 282 288 289 284 279 275 270 265 265 267 269 272 277 281 284 287 289 288 285 281 279 280 283 286 287 284 280 279 280 282 283 284 285 286 286 287 288 289 289 290 290 291 292 294 294 295 296 297 298 299 299 300 301 302 303 304 305 306 306 307 308 309 310 310 311 311 311 311 311 311 312 312 313 314 315 315
270 270 271 273 274 275 276 276 277 279 284 285 280 273 268 264 263 265 269 273 277 281 284 287 289 289 286 282 279 278 280 282 283 282 279 278 279 281 281 282 283 283 284 285 286 287 288 289 289 290 292 293 294 294 295 296 296 297 298 299 300 301 302 303 303 304 305 306 307 308 309 309 310 310 310 310 310 311 311 312 312 313 314 315 315
270 270 271 272 273 274 274 275 276 279 283 281 273 266 262 261 264 270 274 277 281 285 288 290 290 287 281 277 275 276 278 279 279 277 276 277 278 279 280 280 281 282 283 284 286 287 288 289 290 291 291 292 292 293 294 295 296 297 298 299 299 300 301 302 303 304 305 306 307 307 308 309 309 309 309 310 310 310 311 311 312 313 314 315 316
269 270 270 271 271 272 272 274 276 278 278 273 268 266 265 265 269 275 279 281 285 288 289 289 287 283 278 273 272 274 275 275 275 275 276 277 277 277 278 279 280 281 282 284 285 286 287 288 289 290 290 291 292 293 294 295 296 297 297 298 299 300 301 302 303 304 305 306 307 307 308 308 308 308 309 309 309 310 311 311 312 313 314 315 316
266 267 268 269 270 270 271 274 276 276 272 268 267 268 269 269 273 278 281 284 287 288 287 284 282 280 275 271 270 270 271 272 273 274 275 275 276 276 277 278 279 280 282 283 285 286 286 287 288 288 289 290 292 293 294 295 295 296 297 297 298 300 301 302 303 304 305 306 306 307 307 307 307 308 308 308 309 310 311 311 312 313 314 315 316
265 266 266 267 268 270 272 275 276 274 271 267 265 265 268 271 274 277 280 283 284 284 281 279 277 274 271 269 269 270 270 270 271 272 273 273 274 274 275 276 278 280 282 283 284 284 285 286 287 288 290 291 292 293 294 294 295 295 296 297 298 300 301 302 303 304 305 306 306 306 306 306 307 307 308 309 309 310 310 311 312 313 314 315 315
263 264 265 266 267 268 271 275 275 273 270 266 263 265 269 273 275 276 277 278 278 276 275 273 271 270 270 270 270 270 270 270 270 270 270 271 272 273 274 276 278 279 280 281 282 283 284 286 288 289 290 291 292 293 293 294 294 295 296 298 299 300 301 302 304 304 305 305 305 305 305 306 306 307 308 309 310 310 310 311 312 313 314 314 315
260 262 264 265 266 267 270 273 271 269 268 268 268 271 275 277 277 276 274 273 272 272 271 269 268 268 268 268 268 268 269 269 269 268 269 270 271 272 274 276 277 278 279 280 282 283 285 287 288 289 290 291 292 292 293 293 295 296 297 298 299 300 302 303 303 304 304 304 304 304 305 305 306 307 308 309 309 310 310 311 312 312 313 314 315
261 261 262 263 264 267 270 269 267 268 273 277 277 277 278 278 277 276 273 271 269 268 267 266 266 266 265 265 266 268 268 267 267 268 269 270 271 272 274 275 277 278 279 281 283 284 286 287 289 290 290 291 291 292 293 294 295 297 298 299 300 301 302 302 303 303 303 303 304 304 305 306 307 308 308 308 309 310 310 311 311 312 313 314 314
263 263 263 263 263 265 267 267 267 271 277 280 278 276 274 274 273 271 269 266 264 263 263 264 265 265 265 265 266 267 267 267 267 268 269 270 271 273 274 276 277 279 280 282 284 285 287 288 289 290 290 291 292 293 294 295 297 298 299 300 300 301 301 302 302 302 302 303 303 304 305 306 307 307 307 308 309 310 310 310 311 311 312 313 312
262 263 264 264 263 265 267 268 270 273 275 274 271 270 269 269 267 264 262 261 261 262 263 264 265 264 264 264 265 266 266 266 267 268 269 271 273 274 276 277 279 281 282 284 285 287 288 289 289 290 291 292 293 294 295 297 298 298 299 300 300 301 301 301 301 302 302 302 303 304 305 306 306 306 307 308 309 309 309 310 310 310 311 311 310
263 264 266 266 265 265 267 268 270 271 270 267 266 268 269 267 263 260 259 260 262 263 264 264 263 263 264 265 266 266 266 267 268 270 272 273 275 276 278 279 281 282 284 286 287 288 289 289 290 291 292 293 294 295 296 297 298 299 299 300 300 300 300 300 300 301 301 302 303 304 305 305 306 306 307 307 308 308 308 308 309 309 309 309 308
265 266 267 266 263 263 265 266 267 267 266 265 265 265 263 260 257 256 258 261 262 263 263 263 263 264 266 267 267 268 269 270 272 273 274 276 277 278 280 282 283 285 287 288 288 289 290 290 291 292 293 294 295 296 297 298 298 299 299 299 299 299 299 299 299 300 301 302 303 304 304 305 306 306 306 306 307 307 307 307 308 308 307 307 305
261 264 265 264 262 261 262 263 263 264 264 262 259 256 254 253 254 256 259 260 261 262 262 263 265 267 269 270 270 271 272 273 274 275 276 278 279 281 283 284 286 287 288 288 289 289 290 291 292 293 294 295 296 297 297 298 298 298 298 298 298 298 298 298 299 300 301 302 303 304 304 305 305 305 305 305 306 306 306 306 306 306 305 304 302
257 258 260 261 260 259 259 259 260 260 258 255 252 251 252 254 256 258 259 260 261 262 264 266 269 270 271 272 273 274 275 276 276 277 278 280 281 283 285 286 287 288 288 289 290 290 291 292 293 294 295 296 297 297 297 297 297 297 297 297 297 297 297 298 299 300 301 302 303 304 304 304 304 304 304 304 304 305 305 305 304 304 303 301 298
Height
5784 5782 5780 5779 5778 5777 5776 5775 5774 5772 5769 5767 5764 5762 5761 5759 5758 5756 5754 5753 5752 5751 5750 5748 5747 5746 5745 5744 5743 5741 5740 5738 5737 5736 5735 5733 5732 5730 5728 5727 5725 5723 5721 5719 5718 5716 5714 5712 5710 5709 5707 5704 5702 5700 5698 5696 5694 5692 5691 5689 5687 5684 5681 5679 5676 5673 5670 5668 5665 5662 5659 5655 5652 5649 5646 5642 5639 5636 5633 5629 5625 5623 5619 5614 5609
5777 5776 5774 5773 5771 5771 5770 5769 5768 5766 5763 5761 5758 5756 5754 5753 5751 5749 5748 5746 5745 5744 5743 5742 5741 5740 5739 5738 5736 5735 5734 5732 5731 5730 5729 5727 5726 5724 5722 5720 5719 5717 5715 5713 5711 5709 5708 5706 5704 5702 5700 5698 5696 5694 5692 5690 5688 5686 5684 5682 5679 5677 5674 5671 5669 5666 5664 5661 5658 5655 5652 5649 5645 5641 5638 5635 5632 5629 5626 5621 5617 5614 5611 5605 5601
5770 5769 5767 5766 5765 5765 5764 5763 5761 5759 5757 5755 5752 5750 5748 5747 5745 5743 5742 5741 5740 5738 5737 5736 5735 5734 5733 5732 5730 5729 5728 5726 5725 5724 5722 5721 5719 5717 5715 5713 5711 5710 5708 5706 5704 5702 5701 5699 5697 5695 5693 5691 5689 5687 5685 5684 5682 5679 5677 5675 5672 5669 5667 5664 5661 5659 5657 5654 5651 5648 5646 5641 5637 5633 5630 5628 5625 5622 5618 5614 5610 5606 5602 5597 5592
5764 5763 5761 5760 5759 5758 5757 5756 5755 5753 5751 5749 5746 5744 5742 5740 5739 5737 5736 5735 5735 5733 5732 5731 5730 5728 5727 5725 5724 5723 5721 5720 5719 5717 5716 5714 5712 5711 5709 5707 5705 5703 5701 5699 5697 5695 5694 5692 5690 5688 5686 5684 5682 5681 5679 5676 5674 5672 5669 5667 5665 5662 5659 5657 5654 5652 5649 5646 5643 5641 5638 5633 5628 5624 5622 5620 5617 5613 5610 5607 5602 5598 5593 5589 5584
5757 5756 5755 5753 5752 5751 5750 5749 5748 5746 5744 5743 5740 5738 5736 5734 5733 5732 5730 5729 5729 5728 5727 5725 5724 5723 5721 5719 5718 5716 5715 5713 5712 5711 5709 5708 5706 5704 5702 5700 5699 5697 5695 5693 5691 5689 5687 5686 5684 5681 5679 5677 5675 5673 5671 5669 5667 5664 5662 5660 5657 5655 5652 5650 5647 5644 5641 5638 5634 5631 5628 5624 5620 5616 5613 5611 5608 5605 5602 5599 5594 5589 5586 5582 5577
5751 5750 5748 5746 5744 5743 5743 5743 5742 5740 5738 5736 5734 5732 5730 5728 5727 5726 5725 5724 5723 5722 5721 5719 5718 5716 5715 5713 5712 5710 5709 5707 5706 5704 5703 5701 5699 5698 5696 5694 5692 5691 5689 5687 5685 5683 5681 5679 5677 5674 5672 5670 5668 5666 5663 5661 5659 5657 5655 5652 5650 5648 5645 5642 5639 5636 5633 5630 5626 5622 5618 5614 5610 5606 5603 5601 5599 5596 5593 5591 5586 5581 5578 5576 5570
5743 5742 5741 5739 5737 5736 5736 5736 5735 5733 5731 5729 5728 5726 5724 5723 5722 5720 5719 5718 5716 5715 5714 5713 5711 5710 5708 5707 5706 5704 5703 5701 5700 5698 5696 5695 5693 5691 5690 5688 5686 5684 5683 5681 5678 5676 5674 5672 5670 5667 5665 5663 5661 5658 5656 5654 5651 5649 5647 5644 5642 5640 5638 5635 5632 5629 5625 5621 5617 5613 5609 5604 5600 5597 5593 5591 5589 5585 5583 5583 5581 5575 5570 5567 5562
5735 5734 5733 5731 5729 5730 5730 5729 5728 5726 5725 5724 5723 5721 5720 5718 5717 5715 5713 5711 5710 5709 5707 5706 5705 5703 5702 5701 5700 5698 5697 5695 5693 5692 5690 5688 5687 5685 5683 5681 5679 5677 5676 5674 5672 5670 5668 5665 5663 5661 5658 5656 5653 5651 5649 5646 5644 5641 5639 5636 5634 5632 5630 5627 5624 5621 5617 5613 5609 5605 5600 5595 5591 5588 5585 5582 5579 5575 5572 5573 5574 5570 5565 5560 5553
5727 5726 5725 5724 5722 5723 5723 5722 5721 5720 5719 5718 5717 5716 5715 5713 5711 5710 5708 5706 5704 5703 5701 5700 5699 5697 5696 5695 5694 5692 5690 5689 5687 5685 5684 5682 5681 5679 5677 5675 5673 5670 5669 5667 5665 5663 5661 5658 5656 5654 5651 5649 5646 5644 5641 5639 5636 5633 5631 5628 5626 5624 5622 5619 5616 5612 5608 5604 5600 5596 5592 5587 5583 5579 5576 5572 5570 5567 5563 5562 5563 5561 5557 5554 5546
5719 5718 5718 5717 5715 5715 5716 5715 5714 5713 5712 5712 5711 5710 5709 5707 5706 5704 5702 5701 5699 5697 5696 5694 5693 5691 5690 5689 5687 5686 5684 5682 5680 5679 5677 5676 5674 5672 5670 5668 5666 5664 5662 5660 5658 5656 5653 5651 5649 5647 5644 5642 5639 5637 5634 5631 5629 5626 5623 5621 5619 5617 5614 5610 5607 5603 5600 5596 5592 5588 5583 5579 5575 5571 5567 5564 5561 5559 5555 5552 5552 5550 5546 5544 5539
5713 5712 5711 5710 5708 5708 5708 5708 5708 5707 5706 5705 5704 5703 5702 5701 5699 5697 5696 5695 5693 5691 5690 5688 5687 5685 5684 5683 5681 5679 5677 5675 5674 5672 5671 5669 5667 5665 5663 5661 5659 5657 5655 5653 5650 5648 5646 5644 5642 5639 5637 5635 5632 5629 5626 5623 5621 5618 5616 5614 5611 5608 5605 5602 5598 5595 5591 5587 5583 5579 5574 5570 5567 5562 5559 5556 5554 5550 5546 5543 5541 5539 5535 5532 5530
5706 5706 5705 5703 5702 5701 5700 5700 5700 5699 5699 5697 5696 5695 5694 5693 5692 5690 5689 5688 5686 5685 5683 5682 5681 5679 5678 5677 5675 5673 5671 5669 5668 5666 5664 5662 5660 5658 5656 5654 5652 5650 5648 5645 5643 5641 5639 5637 5634 5632 5629 5627 5624 5621 5618 5616 5613 5611 5608 5605 5603 5599 5596 5593 5589 5586 5582 5578 5574 5569 5565 5562 5559 5555 5551 5549 5546 5542 5537 5534 5530 5528 5525 5520 5517
5699 5699 5697 5696 5696 5695 5693 5693 5692 5691 5691 5689 5688 5687 5686 5685 5684 5682 5681 5680 5679 5678 5676 5675 5674 5672 5671 5670 5669 5667 5665 5663 5661 5659 5657 5655 5653 5651 5649 5647 5645 5643 5640 5638 5636 5634 5632 5629 5627 5624 5621 5619 5616 5613 5611 5608 5605 5603 5600 5597 5594 5590 5587 5584 5580 5577 5573 5569 5565 5561 5557 5555 5552 5548 5543 5540 5537 5533 5529 5525 5521 5518 5515 5511 5506
5692 5691 5690 5689 5688 5687 5686 5686 5685 5684 5683 5682 5681 5679 5678 5677 5676 5674 5673 5672 5671 5670 5668 5667 5666 5665 5664 5663 5661 5660 5658 5656 5654 5652 5651 5649 5646 5644 5642 5640 5638 5636 5633 5631 5629 5626 5624 5621 5619 5616 5613 5610 5608 5605 5602 5600 5597 5594 5591 5588 5585 5581 5578 5575 5572 5568 5564 5561 5557 5553 5549 5546 5543 5539 5535 5531 5528 5525 5520 5516 5513 5509 5506 5502 5496
5685 5684 5683 5682 5681 5680 5679 5679 5678 5677 5676 5674 5673 5672 5670 5669 5668 5667 5665 5664 5663 5662 5660 5659 5658 5657 5656 5655 5653 5652 5650 5648 5647 5645 5643 5641 5639 5637 5635 5633 5631 5628 5625 5623 5621 5618 5616 5613 5611 5608 5605 5602 5600 5597 5594 5591 5588 5585 5582 5579 5576 5572 5569 5566 5563 5560 5556 5552 5549 5545 5541 5538 5534 5530 5527 5523 5519 5516 5511 5507 5504 5500 5497 5494 5488
5678 5677 5677 5676 5674 5673 5672 5672 5671 5670 5668 5667 5665 5664 5663 5661 5660 5659 5657 5656 5655 5653 5652 5651 5650 5649 5647 5646 5645 5643 5642 5640 5638 5637 5635 5633 5631 5629 5627 5625 5623 5621 5618 5616 5613 5611 5608 5605 5603 5600 5597 5595 5592 5589 5586 5583 5580 5577 5574 5570 5567 5564 5561 5558 5555 5551 5548 5544 5541 5537 5533 5529 5526 5522 5518 5514 5511 5507 5503 5499 5494 5490 5487 5483 5479
5670 5670 5670 5669 5667 5666 5665 5664 5663 5662 5661 5659 5658 5656 5655 5653 5652 5651 5649 5648 5646 5645 5644 5642 5641 5640 5639 5638 5636 5635 5633 5631 5630 5628 5627 5625 5623 5621 5619 5616 5615 5612 5610 5608 5605 5602 5599 5597 5594 5592 5589 5587 5584 5580 5577 5574 5571 5568 5565 5562 5559 5556 5553 5550 5547 5543 5540 5536 5532 5529 5525 5521 5518 5514 5510 5505 5502 5498 5494 5490 5485 5479 5475 5471 5467
5662 5662 5662 5661 5660 5659 5657 5656 5655 5654 5652 5651 5650 5648 5647 5645 5644 5643 5641 5640 5639 5637 5636 5634 5633 5632 5630 5629 5627 5625 5624 5622 5621 5620 5618 5616 5614 5612 5610 5607 5605 5603 5601 5599 5596 5593 5590 5588 5585 5583 5581 5578 5575 5571 5568 5565 5562 5559 5557 5554 5551 5548 5545 5542 5538 5535 5531 5528 5524 5520 5517 5513 5510 5506 5502 5497 5493 5489 5484 5480 5475 5469 5464 5459 5455
5655 5655 5654 5653 5652 5651 5649 5648 5647 5645 5644 5643 5641 5640 5639 5637 5636 5635 5633 5632 5630 5629 5627 5626 5624 5623 5621 5620 5618 5616 5615 5613 5612 5611 5609 5608 5606 5604 5602 5599 5596 5594 5592 5589 5587 5584 5581 5579 5577 5575 5572 5569 5566 5563 5559 5556 5554 5551 5549 5546 5543 5540 5537 5534 5530 5527 5523 5520 5517 5513 5509 5506 5502 5498 5494 5489 5484 5480 5475 5470 5465 5459 5454 5450 5445
5648 5647 5646 5645 5644 5643 5641 5640 5638 5637 5635 5634 5633 5631 5630 5628 5627 5626 5624 5623 5622 5620 5619 5617 5615 5614 5612 5611 5609 5608 5606 5604 5603 5601 5600 5598 5596 5594 5592 5590 5587 5585 5582 5580 5577 5574 5572 5570 5568 5566 5563 5561 5558 5555 5552 5549 5546 5544 5541 5538 5535 5532 5529 5526 5523 5520 5516 5513 5510 5506 5502 5499 5495 5491 5487 5482 5476 5471 5466 5461 5456 5450 5445 5440 5435
5640 5638 5638 5637 5635 5634 5633 5631 5630 5628 5626 5625 5624 5622 5621 5619 5618 5616 5615 5614 5613 5611 5610 5608 5607 5605 5604 5602 5601 5599 5597 5595 5594 5592 5590 5588 5586 5584 5582 5580 5578 5575 5573 5571 5568 5566 5564 5562 5560 5557 5555 5553 5550 5547 5545 5541 5539 5536 5534 5531 5528 5525 5521 5519 5516 5513 5509 5506 5503 5499 5496 5492 5488 5484 5478 5473 5468 5463 5458 5453 5448 5442 5436 5430 5425
5630 5630 5629 5627 5626 5625 5624 5622 5621 5619 5617 5616 5615 5613 5612 5610 5608 5607 5606 5605 5603 5602 5601 5599 5597 5596 5594 5593 5591 5590 5588 5586 5584 5583 5581 5579 5577 5574 5572 5570 5568 5566 5564 5562 5560 5558 5555 5553 5552 5550 5548 5545 5543 5540 5537 5534 5531 5529 5527 5524 5521 5518 5515 5512 5509 5505 5502 5499 5496 5493 5489 5485 5480 5475 5470 5465 5461 5456 5450 5445 5440 5434 5428 5421 5414
5621 5620 5619 5618 5617 5615 5614 5612 5611 5610 5608 5607 5605 5604 5602 5601 5599 5598 5596 5595 5594 5593 5591 5590 5588 5586 5585 5584 5582 5581 5579 5577 5575 5573 5571 5569 5567 5565 5563 5561 5559 5557 5556 5554 5552 5550 5548 5546 5544 5542 5540 5538 5535 5533 5530 5527 5525 5522 5520 5518 5515 5512 5508 5505 5502 5499 5496 5493 5489 5485 5481 5477 5472 5468 5464 5459 5454 5449 5444 5438 5433 5427 5421 5413 5406
5611 5610 5608 5607 5606 5605 5603 5602 5601 5600 5598 5597 5595 5594 5592 5591 5589 5587 5586 5585 5584 5583 5582 5580 5578 5577 5575 5574 5572 5571 5569 5567 5565 5563 5561 5559 5557 5555 5554 5552 5550 5549 5547 5545 5543 5541 5540 5538 5537 5535 5533 5530 5528 5525 5523 5520 5518 5516 5513 5510 5507 5504 5501 5497 5494 5492 5489 5485 5481 5477 5473 5470 5465 5461 5457 5452 5448 5443 5438 5432 5427 5420 5413 5406 5398
5599 5599 5597 5597 5595 5594 5593 5592 5590 5589 5588 5586 5585 5583 5581 5580 5578 5577 5575 5574 5573 5572 5571 5570 5568 5567 5566 5564 5562 5561 5559 5557 5555 5553 5551 5550 5549 5547 5545 5543 5542 5540 5538 5537 5535 5534 5532 5531 5529 5527 5525 5523 5521 5518 5516 5513 5511 5509 5506 5503 5500 5496 5493 5490 5487 5484 5480 5477 5473 5470 5466 5462 5458 5454 5450 5445 5441 5436 5431 5425 5419 5413 5406 5399 5391
5587 5587 5586 5585 5584 5583 5582 5581 5579 5578 5577 5575 5574 5572 5570 5569 5567 5566 5564 5563 5562 5561 5559 5558 5557 5556 5555 5553 5552 5550 5549 5547 5545 5544 5543 5542 5540 5538 5536 5535 5533 5532 5531 5530 5528 5527 5525 5524 5522 5520 5518 5516 5513 5511 5508 5506 5504 5501 5498 5495 5492 5489 5486 5483 5480 5476 5473 5469 5466 5463 5459 5455 5451 5447 5442 5438 5434 5429 5424 5418 5412 5406 5400 5393 5385
5576 5575 5575 5574 5573 5572 5571 5570 5569 5568 5566 5564 5563 5561 5559 5558 5557 5555 5554 5552 5551 5550 5548 5547 5547 5546 5545 5544 5542 5541 5540 5538 5537 5536 5534 5533 5532 5530 5529 5527 5526 5525 5524 5523 5521 5520 5518 5516 5514 5512 5510 5508 5506 5503 5501 5499 5496 5494 5491 5488 5485 5482 5478 5475 5472 5469 5466 5463 5459 5455 5452 5447 5444 5439 5435 5431 5426 5421 5416 5411 5405 5399 5393 5387 5380
5566 5565 5564 5563 5562 5561 5561 5560 5559 5557 5556 5554 5552 5551 5550 5548 5547 5546 5544 5542 5541 5540 5539 5538 5538 5536 5535 5534 5533 5532 5531 5530 5529 5528 5527 5526 5524 5523 5522 5521 5519 5518 5516 5515 5513 5511 5510 5508 5506 5504 5502 5500 5498 5496 5493 5491 5489 5486 5483 5480 5477 5474 5471 5468 5465 5462 5459 5456 5452 5448 5444 5440 5436 5432 5427 5422 5418 5413 5408 5403 5397 5392 5386 5380 5374
5557 5556 5555 5554 5553 5552 5551 5550 5549 5548 5547 5545 5544 5542 5541 5540 5538 5537 5535 5534 5533 5532 5531 5530 5529 5528 5527 5526 5525 5524 5523 5522 5522 5521 5520 5519 5517 5516 5515 5513 5512 5510 5508 5507 5505 5503 5502 5500 5498 5496 5494 5492 5490 5488 5486 5484 5481 5478 5475 5472 5469 5466 5464 5461 5458 5455 5452 5449 5445 5441 5437 5432 5428 5423 5419 5414 5409 5404 5400 5394 5388 5383 5377 5371 5365
5548 5547 5546 5545 5545 5544 5543 5542 5541 5540 5539 5537 5536 5535 5533 5532 5531 5530 5529 5528 5526 5524 5523 5521 5520 5520 5519 5518 5517 5517 5515 5515 5514 5513 5512 5511 5509 5508 5507 5505 5504 5502 5500 5499 5497 5495 5494 5492 5490 5488 5486 5484 5482 5480 5478 5476 5473 5470 5467 5465 5462 5459 5457 5454 5451 5448 5445 5441 5437 5433 5428 5424 5420 5415 5410 5405 5400 5395 5390 5385 5380 5374 5368 5362 5356
5539 5539 5538 5537 5537 5537 5535 5534 5533 5532 5531 5531 5529 5528 5526 5525 5524 5523 5522 5521 5519 5517 5515 5514 5513 5513 5512 5511 5510 5509 5508 5507 5507 5506 5504 5503 5501 5499 5498 5496 5495 5494 5492 5491 5489 5487 5486 5484 5482 5480 5478 5476 5474 5472 5470 5467 5465 5462 5460 5457 5455 5452 5449 5446 5443 5440 5436 5433 5429 5425 5421 5416 5411 5407 5402 5397 5391 5386 5381 5376 5370 5365 5359 5352 5346
5531 5530 5530 5529 5529 5528 5527 5526 5525 5524 5524 5523 5522 5521 5520 5519 5517 5516 5515 5514 5512 5510 5508 5507 5506 5505 5505 5504 5503 5501 5500 5499 5499 5497 5496 5494 5492 5491 5489 5487 5486 5485 5484 5482 5481 5479 5478 5476 5474 5472 5470 5468 5466 5464 5461 5459 5457 5455 5453 5450 5448 5445 5442 5439 5435 5432 5428 5425 5421 5417 5412 5408 5403 5398 5393 5388 5383 5377 5372 5367 5361 5356 5350 5343 5336
5522 5522 5521 5520 5520 5519 5518 5517 5517 5516 5515 5515 5514 5514 5512 5510 5508 5507 5507 5505 5504 5502 5500 5499 5498 5498 5497 5496 5494 5493 5492 5491 5490 5489 5487 5485 5484 5482 5481 5479 5478 5477 5475 5474 5473 5471 5470 5468 5466 5464 5462 5460 5458 5456 5453 5452 5449 5447 5445 5443 5440 5437 5434 5430 5427 5424 5420 5416 5412 5408 5404 5399 5394 5389 5384 5379 5374 5368 5363 5358 5352 5346 5341 5334 5327
5513 5513 5511 5510 5510 5509 5509 5508 5507 5507 5507 5507 5506 5505 5504 5502 5499 5498 5497 5496 5495 5493 5492 5491 5490 5490 5489 5487 5486 5484 5483 5483 5482 5480 5479 5477 5475 5474 5473 5472 5470 5469 5468 5466 5465 5464 5462 5460 5458 5456 5454 5452 5450 5448 5446 5444 5442 5439 5437 5435 5432 5429 5426 5422 5419 5415 5412 5408 5403 5399 5395 5390 5385 5380 5375 5370 5365 5359 5354 5348 5343 5337 5332 5325 5319
5504 5503 5502 5501 5500 5499 5499 5499 5498 5497 5498 5498 5498 5497 5496 5493 5490 5489 5487 5486 5485 5484 5483 5483 5482 5481 5480 5479 5477 5476 5475 5474 5473 5471 5470 5469 5467 5466 5465 5464 5462 5461 5460 5459 5457 5456 5454 5452 5450 5449 5447 5445 5443 5441 5438 5436 5434 5431 5429 5426 5424 5421 5417 5414 5410 5406 5403 5399 5395 5390 5386 5381 5377 5372 5366 5361 5356 5350 5344 5339 5334 5328 5323 5317 5310
5492 5492 5491 5491 5490 5489 5489 5489 5488 5488 5489 5490 5489 5488 5486 5484 5481 5480 5478 5477 5476 5475 5475 5474 5473 5472 5471 5470 5469 5468 5466 5465 5464 5463 5462 5461 5460 5459 5458 5456 5455 5453 5452 5451 5449 5448 5446 5444 5443 5441 5439 5437 5435 5433 5431 5429 5426 5424 5421 5418 5415 5412 5409 5405 5401 5397 5393 5390 5385 5381 5377 5372 5368 5362 5357 5352 5347 5341 5335 5330 5325 5319 5314 5309 5302
5481 5480 5480 5480 5480 5479 5479 5479 5479 5479 5481 5481 5479 5477 5476 5474 5472 5471 5470 5468 5467 5466 5466 5465 5464 5463 5462 5461 5460 5459 5458 5457 5456 5455 5454 5453 5452 5451 5450 5449 5447 5446 5444 5443 5441 5440 5438 5436 5435 5433 5432 5430 5428 5425 5423 5421 5418 5415 5412 5409 5406 5403 5400 5396 5392 5388 5384 5380 5376 5372 5367 5363 5359 5353 5348 5342 5337 5332 5326 5321 5316 5311 5305 5300 5294
5468 5469 5469 5469 5469 5469 5470 5470 5469 5470 5472 5472 5470 5467 5466 5464 5463 5462 5461 5460 5459 5458 5457 5457 5456 5454 5453 5453 5452 5451 5450 5449 5448 5447 5446 5445 5444 5443 5442 5441 5440 5438 5436 5434 5433 5432 5430 5429 5427 5426 5424 5422 5420 5418 5415 5413 5410 5407 5404 5401 5398 5394 5391 5387 5383 5379 5375 5371 5367 5362 5358 5354 5349 5344 5339 5334 5328 5322 5316 5311 5306 5302 5296 5290 5284
5456 5457 5458 5458 5459 5459 5460 5460 5459 5461 5463 5462 5460 5458 5456 5454 5453 5452 5452 5451 5450 5450 5449 5448 5447 5446 5445 5445 5444 5443 5442 5441 5440 5439 5438 5437 5436 5435 5434 5433 5432 5430 5429 5427 5425 5424 5423 5421 5420 5418 5416 5414 5412 5410 5407 5404 5401 5398 5395 5392 5389 5385 5382 5378 5374 5370 5366 5361 5357 5353 5349 5344 5340 5335 5330 5325 5319 5313 5307 5301 5296 5292 5287 5281 5275
5445 5446 5446 5447 5448 5449 5450 5450 5451 5452 5454 5453 5450 5448 5447 5445 5444 5444 5443 5442 5442 5441 5440 5440 5439 5438 5437 5437 5436 5435 5434 5432 5432 5431 5430 5429 5428 5427 5426 5425 5424 5423 5421 5420 5418 5417 5416 5414 5412 5410 5409 5406 5404 5402 5399 5396 5393 5390 5386 5383 5380 5376 5373 5369 5365 5361 5357 5352 5348 5343 5339 5334 5330 5325 5320 5315 5310 5304 5298 5292 5286 5281 5277 5272 5267
5435 5436 5436 5437 5438 5439 5440 5441 5442 5443 5444 5443 5441 5439 5438 5437 5436 5435 5434 5434 5433 5432 5432 5432 5431 5430 5429 5429 5428 5427 5425 5424 5424 5423 5422 5422 5421 5419 5418 5417 5416 5415 5413 5412 5411 5410 5408 5406 5405 5403 5401 5398 5396 5393 5390 5387 5384 5380 5377 5374 5371 5367 5364 5360 5356 5352 5348 5343 5338 5333 5329 5325 5320 5316 5311 5306 5301 5295 5289 5283 5277 5272 5267 5263 5258
5426 5426 5427 5427 5428 5430 5431 5432 5432 5433 5433 5433 5431 5429 5428 5428 5427 5427 5426 5426 5425 5425 5424 5424 5423 5422 5422 5421 5420 5419 5417 5416 5416 5415 5414 5414 5412 5411 5410 5409 5408 5407 5406 5404 5403 5401 5400 5398 5396 5394 5392 5390 5387 5384 5381 5378 5374 5371 5368 5365 5361 5358 5354 5351 5347 5343 5339 5334 5329 5324 5319 5315 5310 5305 5300 5296 5291 5285 5279 5273 5267 5262 5257 5253 5248
5416 5417 5417 5417 5419 5421 5422 5422 5422 5423 5423 5422 5420 5419 5419 5419 5419 5418 5418 5418 5417 5417 5417 5416 5415 5415 5415 5414 5412 5411 5410 5409 5408 5407 5406 5406 5405 5404 5403 5401 5400 5399 5398 5396 5395 5393 5391 5390 5388 5385 5383 5380 5378 5375 5372 5368 5365 5362 5359 5355 5351 5348 5344 5341 5338 5334 5330 5324 5319 5314 5309 5304 5300 5295 5290 5286 5281 5276 5269 5263 5258 5252 5248 5243 5239
5406 5406 5407 5408 5410 5412 5412 5412 5412 5412 5412 5412 5410 5410 5410 5410 5410 5410 5410 5409 5409 5409 5408 5407 5407 5407 5406 5404 5403 5402 5402 5401 5400 5400 5399 5398 5397 5396 5395 5393 5392 5391 5389 5388 5386 5385 5383 5381 5379 5377 5374 5371 5369 5366 5363 5359 5356 5353 5349 5346 5342 5338 5334 5331 5328 5324 5320 5315 5310 5304 5299 5294 5289 5285 5280 5276 5271 5266 5260 5254 5248 5243 5238 5233 5229
5395 5396 5398 5400 5401 5402 5403 5403 5402 5401 5401 5401 5401 5401 5401 5401 5401 5401 5401 5401 5401 5400 5400 5399 5399 5399 5397 5396 5394 5394 5394 5393 5392 5392 5391 5390 5389 5388 5387 5385 5384 5383 5381 5380 5378 5377 5375 5373 5370 5368 5365 5362 5360 5356 5353 5350 5347 5343 5340 5336 5332 5328 5325 5321 5317 5313 5309 5305 5300 5295 5289 5284 5279 5274 5270 5265 5261 5256 5250 5244 5239 5233 5228 5224 5221
5386 5388 5389 5391 5392 5393 5393 5393 5392 5392 5392 5393 5392 5392 5392 5392 5392 5392 5392 5392 5392 5392 5392 5392 5391 5390 5389 5388 5387 5387 5387 5386 5385 5384 5383 5382 5381 5380 5378 5378 5376 5375 5373 5372 5370 5368 5366 5364 5362 5359 5356 5353 5350 5347 5344 5341 5337 5333 5330 5326 5322 5319 5315 5311 5307 5303 5298 5294 5290 5285 5280 5274 5269 5264 5259 5255 5250 5245 5240 5235 5229 5224 5220 5216 5213
5377 5379 5380 5382 5382 5382 5382 5382 5382 5383 5384 5385 5384 5384 5384 5384 5384 5384 5384 5384 5384 5383 5383 5383 5383 5382 5381 5380 5379 5379 5378 5378 5377 5376 5375 5374 5373 5372 5371 5370 5369 5367 5365 5364 5362 5360 5358 5355 5353 5350 5347 5344 5341 5337 5334 5331 5327 5323 5320 5316 5312 5308 5304 5301 5296 5292 5288 5283 5279 5274 5269 5265 5259 5254 5249 5244 5240 5235 5230 5225 5220 5215 5211 5208 5205
5368 5370 5371 5371 5372 5372 5372 5373 5374 5375 5376 5376 5376 5376 5377 5377 5376 5376 5376 5376 5376 5376 5376 5375 5374 5374 5373 5372 5371 5371 5370 5370 5369 5368 5367 5366 5365 5364 5363 5362 5361 5359 5357 5355 5353 5351 5349 5346 5343 5340 5337 5334 5331 5328 5324 5321 5317 5313 5310 5306 5302 5298 5294 5290 5286 5281 5277 5273 5269 5264 5259 5254 5249 5243 5238 5234 5229 5225 5220 5215 5210 5207 5203 5200 5197
5360 5362 5362 5362 5363 5363 5364 5365 5366 5367 5367 5367 5367 5368 5368 5368 5368 5368 5368 5368 5368 5368 5368 5367 5367 5366 5365 5365 5364 5364 5363 5362 5361 5360 5360 5359 5358 5356 5355 5354 5352 5350 5348 5346 5344 5342 5339 5336 5334 5331 5327 5324 5321 5318 5314 5311 5307 5303 5299 5295 5292 5288 5284 5280 5276 5271 5267 5263 5258 5253 5249 5244 5238 5233 5228 5223 5219 5215 5210 5206 5201 5198 5195 5192 5190
5353 5354 5354 5354 5355 5355 5356 5357 5358 5358 5359 5359 5359 5359 5359 5360 5360 5360 5360 5360 5360 5360 5360 5359 5359 5359 5358 5358 5357 5357 5356 5355 5354 5353 5352 5351 5350 5348 5347 5345 5343 5341 5339 5337 5335 5332 5330 5327 5324 5321 5317 5314 5311 5307 5303 5300 5296 5292 5288 5284 5280 5277 5273 5269 5265 5260 5256 5252 5248 5243 5238 5233 5227 5222 5217 5213 5209 5205 5201 5197 5193 5190 5187 5185 5183
5345 5345 5346 5346 5347 5348 5348 5349 5349 5350 5350 5351 5351 5352 5352 5352 5352 5352 5352 5352 5352 5352 5352 5352 5352 5351 5351 5351 5350 5349 5349 5348 5347 5346 5344 5343 5342 5340 5338 5336 5334 5332 5330 5328 5325 5323 5320 5317 5314 5311 5307 5304 5300 5296 5292 5288 5285 5281 5277 5273 5268 5265 5261 5257 5253 5249 5244 5241 5236 5232 5227 5221 5216 5212 5207 5203 5200 5196 5192 5188 5185 5182 5180 5177 5176